Weather History for Phoenix-Mesa Gateway Airport, AZ

Change the Weather History Date:

Monday, March 11, 2013

  Actual Average Record
Temperature  
Mean Temperature 58 °F -  
Max Temperature 73 °F 73 °F 89 °F (1997)
Min Temperature 42 °F 47 °F 39 °F (2001)
Degree Days  
Heating Degree Days 8    
Growing Degree Days 8 (Base 50)    
Moisture  
Dew Point 39 °F    
Average Humidity 62    
Maximum Humidity 93    
Minimum Humidity 20    
Precipitation  
Precipitation 0.00 in - - ()
Sea Level Pressure  
Sea Level Pressure 30.11 in    
Wind  
Wind Speed 5 mph (ESE)    
Max Wind Speed 8 mph    
Max Gust Speed -    
Visibility 11 miles    
Events      
Averages and records for this station are not official NWS values.
T = Trace of Precipitation, MM = Missing Value Source: NWS Daily Summary

Daily Weather History Graph

Daily Weather History Graph

Search for Another Location

Airport:

Trip Planner

Search our weather history database for the weather conditions in past years. The results will help you decide how hot, cold, wet, or windy it might be!

Date:

Astronomy

Mar. 11, 2013 Rise Set
Actual Time 6:41 AM MST 6:31 PM MST
Civil Twilight 6:17 AM MST 6:56 PM MST
Nautical Twilight 5:48 AM MST 7:25 PM MST
Astronomical Twilight 5:19 AM MST 7:54 PM MST
Moon 6:19 AM MST (3/11) 6:44 PM MST (3/11)
Length of Visible Light 12h 39m
Length of Day
11h 49m
Waning Crescent, 0% of the Moon is Illuminated
Mar 11
Waning Crescent
Mar 11
New
Mar 19
First Quarter
Mar 27
Full
Apr 2
Last Quarter

Hourly Weather History & Observations

Time (MST) Temp. Windchill Dew Point Humidity Pressure Visibility Wind Dir Wind Speed Gust Speed Precip Events Conditions
12:15 AM 46.4 °F 42.9 °F 41.0 °F 81% 30.17 in 10.0 mi SE 6.9 mph - N/A   Clear
12:35 AM 48.2 °F - 41.0 °F 76% 30.17 in 10.0 mi SE 5.8 mph - N/A   Clear
12:55 AM 46.4 °F 43.5 °F 41.0 °F 81% 30.17 in 10.0 mi SE 5.8 mph - N/A   Clear
1:15 AM 46.4 °F 42.9 °F 41.0 °F 81% 30.18 in 10.0 mi ESE 6.9 mph - N/A   Clear
1:35 AM 46.4 °F 42.9 °F 41.0 °F 81% 30.17 in 10.0 mi ESE 6.9 mph - N/A   Clear
1:55 AM 46.4 °F 42.9 °F 41.0 °F 81% 30.17 in 10.0 mi ESE 6.9 mph - N/A   Clear
2:15 AM 44.6 °F 41.4 °F 41.0 °F 87% 30.16 in 10.0 mi ESE 5.8 mph - N/A   Clear
2:35 AM 44.6 °F 41.4 °F 41.0 °F 87% 30.16 in 10.0 mi East 5.8 mph - N/A   Clear
2:55 AM 42.8 °F - 39.2 °F 87% 30.15 in 10.0 mi Calm Calm - N/A   Clear
3:15 AM 42.8 °F 38.0 °F 41.0 °F 93% 30.15 in 10.0 mi ENE 8.1 mph - N/A   Clear
3:35 AM 44.6 °F 40.7 °F 41.0 °F 87% 30.14 in 10.0 mi ENE 6.9 mph - N/A   Clear
3:55 AM 44.6 °F 42.2 °F 39.2 °F 81% 30.14 in 10.0 mi East 4.6 mph - N/A   Clear
4:15 AM 42.8 °F 38.6 °F 39.2 °F 87% 30.14 in 10.0 mi ESE 6.9 mph - N/A   Clear
4:35 AM 42.8 °F 41.1 °F 37.4 °F 81% 30.14 in 10.0 mi ESE 3.5 mph - N/A   Clear
4:55 AM 42.8 °F 40.1 °F 37.4 °F 81% 30.15 in 10.0 mi SE 4.6 mph - N/A   Clear
5:15 AM 42.8 °F 41.1 °F 37.4 °F 81% 30.15 in 10.0 mi South 3.5 mph - N/A   Clear
5:47 AM 42.8 °F 40.1 °F 39.2 °F 87% 30.13 in 20.0 mi East 4.6 mph - N/A   Clear
6:47 AM 42.8 °F 41.1 °F 37.4 °F 81% 30.17 in 30.0 mi SSE 3.5 mph - N/A   Clear
7:47 AM 46.4 °F 44.3 °F 39.2 °F 76% 30.18 in 30.0 mi East 4.6 mph - N/A   Clear
8:47 AM 53.6 °F - 42.8 °F 67% 30.20 in 45.0 mi ESE 4.6 mph - N/A   Clear
9:47 AM 55.4 °F - 39.2 °F 54% 30.20 in 45.0 mi Calm Calm - N/A   Clear
10:47 AM 60.8 °F - 37.4 °F 42% 30.19 in 45.0 mi Calm Calm - N/A   Clear
11:47 AM 64.4 °F - 39.2 °F 40% 30.17 in 30.0 mi Variable 4.6 mph - N/A   Clear
12:47 PM 66.2 °F - 33.8 °F 30% 30.15 in 30.0 mi Variable 4.6 mph - N/A   Clear
1:50 PM 69.8 °F - 30.2 °F 23% 30.11 in 45.0 mi NW 4.6 mph - N/A   Clear
2:47 PM 71.6 °F - 30.2 °F 22% 30.09 in 45.0 mi Calm Calm - N/A   Clear
3:47 PM 73.4 °F - 30.2 °F 20% 30.06 in 45.0 mi NNW 3.5 mph - N/A   Partly Cloudy
4:47 PM 73.4 °F - 32.0 °F 22% 30.05 in 45.0 mi West 4.6 mph - N/A   Partly Cloudy
5:47 PM 73.4 °F - 37.4 °F 27% 30.04 in 45.0 mi WNW 5.8 mph - N/A   Partly Cloudy
6:49 PM 68.0 °F - 32.0 °F 26% 30.03 in 20.0 mi Calm Calm - N/A   Clear
7:47 PM 62.6 °F - 33.8 °F 34% 30.04 in 20.0 mi Calm Calm - N/A   Clear
7:55 PM 62.6 °F - 33.8 °F 34% 30.04 in 10.0 mi Calm Calm - N/A   Clear
8:15 PM 64.4 °F - 32.0 °F 30% 30.04 in 10.0 mi Calm Calm - N/A   Clear
8:35 PM 60.8 °F - 39.2 °F 45% 30.05 in 10.0 mi Calm Calm - N/A   Clear
8:47 PM 57.2 °F - 42.8 °F 59% 30.05 in 20.0 mi Variable 3.5 mph - N/A   Clear
8:55 PM 57.2 °F - 39.2 °F 51% 30.05 in 10.0 mi Calm Calm - N/A   Clear
9:15 PM 57.2 °F - 37.4 °F 48% 30.06 in 10.0 mi Calm Calm - N/A   Clear
9:35 PM 57.2 °F - 41.0 °F 55% 30.06 in 10.0 mi East 4.6 mph - N/A   Clear
9:55 PM 57.2 °F - 42.8 °F 59% 30.06 in 10.0 mi East 3.5 mph - N/A   Clear
10:15 PM 57.2 °F - 42.8 °F 59% 30.07 in 10.0 mi Calm Calm - N/A   Clear
10:35 PM 51.8 °F - 41.0 °F 67% 30.07 in 10.0 mi Calm Calm - N/A   Clear
10:55 PM 51.8 °F - 41.0 °F 67% 30.08 in 10.0 mi East 6.9 mph - N/A   Clear
11:15 PM 51.8 °F - 44.6 °F 76% 30.07 in 10.0 mi ESE 3.5 mph - N/A   Clear
11:35 PM 51.8 °F - 44.6 °F 76% 30.08 in 10.0 mi ESE 5.8 mph - N/A   Clear
11:55 PM 51.8 °F - 44.6 °F 76% 30.07 in 10.0 mi East 5.8 mph - N/A   Clear